PDT,Max TemperatureF,Mean TemperatureF,Min TemperatureF,Max Dew PointF,MeanDew PointF,Min DewpointF,Max Humidity, Mean Humidity, Min Humidity, Max Sea Level PressureIn, Mean Sea Level PressureIn, Min Sea Level PressureIn, Max VisibilityMiles, Mean VisibilityMiles, Min VisibilityMiles, Max Wind SpeedMPH, Mean Wind SpeedMPH, Max Gust SpeedMPH,PrecipitationIn, CloudCover, Events, WindDirDegrees
2012-9-1,66,58,50,54,50,47,100,78,56,30.17,30.13,30.06,10,10,5,15,5,18,0.00,4,,318
2012-9-2,68,57,46,54,51,44,93,76,59,30.20,30.17,30.14,10,10,10,14,6,17,0.00,1,,350
2012-9-3,68,59,50,57,54,48,96,85,73,30.17,30.15,30.13,10,10,8,17,7,22,0.00,3,,306
2012-9-4,71,63,55,58,55,53,93,80,66,30.19,30.15,30.10,10,8,1,16,7,20,0.00,5,,288
2012-9-5,70,62,53,58,55,53,100,82,63,30.10,30.05,29.96,10,5,0,15,6,18,0.00,7,Fog,265
2012-9-6,69,62,54,58,55,53,100,84,68,30.01,29.98,29.96,10,8,2,12,4,,0.00,4,,247
2012-9-7,84,69,53,58,55,50,93,65,37,30.07,30.04,30.01,10,7,1,16,7,20,0.00,4,,205
2012-9-8,63,59,55,56,53,48,93,84,75,30.06,30.04,30.01,10,9,4,18,8,24,0.00,8,,202
2012-9-9,60,58,55,57,54,48,100,86,72,30.05,30.02,29.99,10,8,1,16,7,23,0.04,8,Rain,190
2012-9-10,64,57,50,57,51,45,100,76,52,30.24,30.14,30.02,10,8,0,18,7,23,0.06,5,Fog-Rain,286
2012-9-11,65,54,42,50,45,41,100,76,52,30.29,30.26,30.23,10,10,10,24,9,30,0.00,0,,9
2012-9-12,78,61,43,55,46,40,86,59,32,30.25,30.20,30.13,10,10,9,18,8,22,0.00,0,,51
2012-9-13,85,69,53,52,49,43,77,50,23,30.13,30.07,30.02,10,9,3,10,7,15,0.00,0,,75
2012-9-14,63,55,47,55,51,46,100,86,72,30.11,30.07,30.06,10,4,0,13,4,16,0.00,6,Fog,225
2012-9-15,68,61,54,55,52,48,93,77,60,30.20,30.17,30.12,10,10,8,18,5,22,0.00,4,,273
2012-9-16,73,60,46,57,50,45,96,75,53,30.20,30.14,30.06,10,10,8,14,6,17,0.00,3,,327
2012-9-17,82,66,49,59,54,47,93,69,45,30.05,30.00,29.95,10,10,10,12,5,13,0.00,1,,61
2012-9-18,58,53,48,52,50,48,100,89,77,30.14,30.06,30.00,10,6,0,18,7,26,0.01,6,Fog,221
2012-9-19,57,55,52,52,51,50,100,93,86,30.16,30.14,30.11,10,9,4,7,3,12,0.00,8,,235
2012-9-20,60,56,52,55,53,51,100,86,72,30.13,30.11,30.09,10,7,2,9,3,12,0.00,8,Rain,202
2012-9-21,61,58,55,55,54,49,93,86,78,30.16,30.14,30.13,10,9,3,10,4,13,0.00,7,Rain,216
2012-9-22,65,58,50,54,50,47,96,76,56,30.17,30.15,30.12,10,10,9,10,4,15,0.00,5,,250
2012-9-23,66,54,42,46,43,41,100,94,93,30.13,30.12,30.11,10,10,10,5,4,,0.00,0,,137
2012-9-24,67,56,44,57,53,48,93,73,52,30.16,30.14,30.12,10,9,4,16,10,20,0.00,7,,312
2012-9-25,63,59,54,52,49,45,86,73,60,30.16,30.14,30.12,10,10,10,15,10,18,0.00,4,,327
2012-9-26,67,55,42,55,48,41,100,84,67,30.12,30.08,30.02,10,10,2,20,5,24,0.00,3,,325
2012-9-27,74,58,42,55,49,41,100,77,53,30.03,29.99,29.92,10,8,0,16,4,21,0.00,0,Fog,318
2012-9-28,67,60,52,56,53,50,93,77,60,30.08,30.00,29.92,10,6,1,14,4,20,0.01,5,,256
2012-9-29,64,59,53,54,49,46,89,73,56,30.30,30.20,30.07,10,10,9,21,13,25,0.00,2,,323
2012-9-30,67,54,41,50,46,39,96,74,52,30.38,30.34,30.30,10,10,10,20,6,25,0.00,0,,353